Wind_Speed
66 63 61 59 60 61 63 63 64 65 66 68 70 72 74 75 75 75 74 73 72 71 68 64 65 66 62 60 61 62 62 60 58 58 57 56 56 56 58 59 59 58 57 56 56 55 53 52 52 52 52 52 51 51 51 47 44 43 43 46 47 46 48 49 49 49 48 47 47 45 45 44 42 40 39 35 30 25 23 24 26 28 29 26 24 24
65 62 60 61 63 64 65 65 65 65 66 67 68 70 72 74 75 76 76 75 74 71 67 64 65 66 63 61 62 63 62 61 59 58 58 57 57 58 59 60 60 59 58 57 56 55 53 52 52 52 50 48 44 41 39 37 35 32 32 35 36 37 40 40 41 44 44 44 44 44 43 42 41 40 37 34 31 25 21 23 26 28 29 28 26 27
63 61 61 63 64 65 65 65 65 65 65 66 67 69 71 72 74 76 77 76 75 72 66 63 66 67 64 62 63 63 63 61 60 59 58 58 58 59 60 61 61 60 59 57 56 55 54 54 53 51 48 45 42 39 38 39 36 29 29 32 34 35 34 34 36 38 40 41 42 41 40 39 39 40 38 35 32 27 24 24 26 27 29 29 28 30
63 61 63 64 65 65 64 65 65 65 64 64 65 67 68 70 73 75 76 76 75 71 66 64 67 67 64 63 63 64 63 62 60 60 59 60 60 61 62 61 61 60 58 57 57 56 55 54 52 51 49 46 45 44 46 47 42 35 35 35 36 36 34 35 37 36 36 38 40 41 39 39 39 39 38 36 35 32 29 28 26 26 28 30 30 31
64 64 65 65 64 64 65 65 65 65 64 63 64 64 66 68 71 73 74 74 73 70 67 66 68 67 65 63 63 64 63 61 60 60 60 61 62 62 61 60 59 58 58 57 56 55 53 52 51 51 51 48 47 47 49 50 46 43 43 42 41 40 38 36 36 34 34 35 37 41 41 42 41 39 36 37 40 38 35 34 30 27 28 30 32 33
65 65 64 64 64 65 65 65 64 64 63 63 63 63 65 68 70 70 71 71 71 69 68 68 69 67 65 64 63 62 61 60 59 59 59 60 61 61 60 58 57 57 57 55 54 53 52 51 51 51 51 50 48 47 49 50 49 48 49 48 46 44 41 37 34 34 34 32 33 36 40 43 43 41 37 37 41 42 40 38 34 29 26 29 32 35
66 65 64 64 65 65 65 64 63 63 63 62 62 63 65 67 69 68 68 69 69 68 69 70 69 66 65 63 62 61 59 58 57 58 59 59 60 59 57 56 56 55 54 53 52 52 51 50 51 52 52 51 48 46 47 49 51 51 52 53 52 49 45 39 36 34 34 34 34 35 37 39 42 44 43 40 41 43 42 39 35 31 28 30 32 33
65 65 65 65 65 63 62 62 62 62 61 60 61 63 65 66 67 66 66 66 67 67 69 70 69 67 65 64 62 60 58 58 57 57 58 58 58 56 54 54 54 53 52 51 51 51 51 50 50 52 52 51 49 47 46 47 49 51 53 55 55 54 50 44 40 37 36 37 38 38 37 37 39 43 45 45 43 43 43 39 35 33 31 33 34 33
65 66 66 65 64 61 59 59 61 62 61 60 61 63 64 65 66 64 63 63 64 66 68 69 68 67 65 63 61 59 58 57 56 56 56 56 55 54 54 53 52 51 51 51 51 51 51 51 50 50 51 51 49 47 47 47 47 48 50 52 53 54 52 49 45 42 40 39 40 41 40 37 37 40 44 45 44 43 42 41 39 37 36 37 37 37
67 67 67 65 62 59 59 60 62 61 61 61 62 63 64 65 64 62 61 62 62 64 67 68 67 66 64 61 59 57 57 56 54 54 55 55 54 53 52 51 50 51 51 51 51 51 51 51 50 50 50 50 49 48 47 47 47 47 48 49 49 49 50 50 49 46 44 44 43 42 40 38 36 37 41 42 43 44 42 41 41 40 40 40 39 40
67 66 64 62 59 59 61 61 62 61 62 63 64 65 65 65 63 61 61 61 61 62 64 65 64 63 61 59 57 56 56 55 53 53 55 55 54 52 50 50 50 51 51 51 51 51 51 51 51 51 50 49 48 48 47 47 47 47 47 47 47 45 46 48 51 51 50 49 48 44 41 39 36 35 36 38 43 45 44 41 38 38 42 42 39 39
64 63 61 59 58 59 59 60 60 61 63 64 65 65 65 63 61 60 60 59 58 58 60 61 61 60 58 56 54 54 54 53 52 53 54 55 54 51 49 50 51 51 50 50 51 51 51 51 51 51 49 48 47 47 46 46 46 46 46 47 47 46 45 46 49 52 54 53 52 48 44 41 37 34 34 39 46 49 50 49 47 46 46 42 40 40
62 61 59 58 56 57 57 57 58 60 61 63 63 63 62 59 58 57 57 56 55 55 57 57 57 56 55 54 53 53 52 51 51 52 54 55 53 50 50 51 51 50 50 50 51 51 51 51 50 49 48 48 47 47 46 46 46 46 46 47 47 47 47 48 49 50 52 54 53 52 49 44 40 36 35 39 47 51 52 53 55 58 55 46 41 41
60 58 56 54 53 53 54 55 56 57 59 60 60 60 58 55 54 54 54 53 52 53 53 54 54 52 51 51 51 51 51 50 51 53 55 55 53 51 51 51 50 49 50 50 50 50 50 50 49 48 48 47 47 47 47 46 46 46 46 48 49 49 51 51 50 48 48 50 53 54 53 50 45 41 39 39 43 49 51 51 55 59 60 56 50 45
58 55 51 51 51 50 51 53 56 58 60 60 59 59 56 53 51 50 50 50 49 50 51 52 52 50 49 50 51 50 50 50 52 54 55 54 51 50 50 50 49 49 49 50 50 50 50 49 48 47 47 48 48 48 48 47 47 47 48 49 51 52 53 53 52 49 47 48 52 55 56 54 50 46 44 41 39 45 51 52 53 56 58 59 58 54
54 52 50 51 51 51 52 55 58 60 59 59 58 57 55 53 51 50 49 49 49 50 51 51 51 49 50 51 50 49 49 51 53 54 54 52 50 50 50 49 48 48 49 49 49 49 49 48 48 47 47 47 48 48 48 48 48 49 50 51 53 54 54 52 51 48 45 45 48 53 56 57 54 49 47 44 39 41 50 54 54 54 55 56 56 57
52 51 51 53 52 52 54 57 60 60 58 55 54 52 52 52 51 51 51 51 51 52 51 50 48 48 49 49 49 48 49 52 53 53 52 50 49 49 49 48 48 48 49 49 49 49 48 48 47 47 47 47 48 48 48 49 50 51 52 53 54 53 52 50 49 46 42 41 42 47 51 56 57 52 47 46 40 37 45 54 56 54 54 55 55 54
53 53 54 54 54 54 56 57 58 58 57 54 52 50 51 52 52 52 52 51 51 50 49 47 46 46 47 47 48 48 49 51 52 52 51 49 48 48 48 48 49 49 49 49 49 49 48 47 47 47 47 47 47 47 48 49 51 52 54 55 54 52 49 47 45 44 43 42 42 44 47 52 56 55 49 45 39 36 41 50 55 56 54 55 57 55
54 55 56 55 55 55 55 56 56 56 55 55 56 56 55 52 52 52 52 51 50 49 47 46 45 46 47 47 48 49 51 52 52 51 49 47 47 48 48 49 49 49 49 49 49 49 48 47 47 46 46 46 46 47 48 49 51 52 53 54 52 50 47 44 41 41 42 45 45 46 48 48 49 50 48 42 37 36 39 46 51 55 56 56 58 57
55 56 56 56 55 54 54 54 54 54 53 54 56 56 54 52 52 53 52 51 51 50 48 47 46 46 48 48 49 51 52 53 52 50 48 47 47 48 49 50 50 50 50 50 49 48 48 47 47 46 47 47 47 47 48 50 50 51 52 51 50 47 44 40 38 37 39 43 46 48 49 46 42 42 42 40 38 36 38 43 48 53 57 57 58 58
55 56 56 56 54 54 53 51 52 53 54 53 53 51 50 50 50 51 51 51 50 49 47 46 46 47 48 49 51 53 54 53 52 50 49 48 49 49 50 50 50 50 50 50 49 48 48 47 47 47 47 47 48 48 49 50 49 49 49 49 46 43 40 35 34 34 36 40 44 48 51 50 44 40 39 40 40 38 37 41 45 50 55 55 56 56
55 56 56 55 54 53 52 50 49 51 52 52 52 51 51 51 51 51 51 50 49 48 47 46 47 48 49 49 52 54 53 53 51 50 50 50 50 50 50 51 51 51 51 50 49 48 48 48 48 48 48 48 49 49 50 49 48 47 47 46 43 39 36 33 31 32 34 36 40 44 49 52 50 46 43 41 41 39 38 40 43 47 50 53 54 54
56 55 55 54 53 53 51 50 49 49 49 50 50 50 50 51 51 51 51 50 49 49 48 47 48 49 49 50 52 53 52 52 51 51 52 51 50 51 51 51 52 52 51 50 49 49 49 49 49 48 48 48 49 50 50 50 47 44 44 43 40 36 34 32 30 30 32 34 37 40 43 48 50 48 45 42 42 41 39 40 43 45 48 52 54 55
55 55 55 54 53 54 54 54 53 52 51 51 49 48 48 48 49 49 50 50 48 47 48 48 49 50 50 51 52 53 52 52 52 52 52 51 51 52 52 52 52 52 51 50 50 50 50 49 49 49 48 49 49 50 51 50 46 42 41 41 38 34 32 32 30 30 31 32 34 36 38 41 45 47 46 44 43 43 42 40 42 44 45 49 54 56
53 53 52 52 53 55 55 55 54 52 50 48 46 44 44 45 47 48 49 49 47 47 48 49 50 51 51 51 52 52 52 52 52 53 52 52 53 53 52 52 53 52 51 50 50 50 49 49 49 49 49 49 49 50 51 51 47 41 38 39 37 33 31 32 32 30 30 31 32 33 34 36 39 43 46 45 44 44 43 42 42 42 43 46 52 55
52 51 50 49 49 50 49 49 49 48 46 44 44 44 44 45 46 47 48 48 48 48 49 50 51 52 51 51 52 52 52 53 53 53 53 54 54 53 53 53 53 52 51 50 49 49 49 49 49 49 49 49 50 51 51 51 48 42 37 37 37 34 32 32 32 31 30 30 31 31 31 32 34 38 41 43 42 43 44 44 44 43 43 44 50 54
51 50 50 49 48 47 46 47 48 48 48 47 46 46 46 46 47 47 48 48 48 49 50 51 53 53 52 52 52 53 53 54 54 54 54 55 55 54 54 54 53 52 51 49 49 50 49 49 49 49 49 50 51 52 52 50 48 43 38 36 36 36 34 33 32 31 30 30 29 29 29 30 31 34 37 39 40 42 45 46 45 45 44 43 47 53
54 53 52 51 51 50 49 49 49 49 50 50 48 48 48 48 48 49 49 49 50 50 51 52 53 53 53 53 53 53 54 55 55 55 55 55 55 56 55 54 53 52 50 49 49 50 50 49 49 49 50 51 51 52 51 50 48 45 40 36 35 37 37 35 33 32 31 30 29 28 27 28 29 32 34 37 39 41 46 48 47 45 45 44 45 50
54 54 54 54 55 55 54 53 50 50 51 50 49 48 48 49 50 51 51 51 51 51 52 53 54 54 54 54 54 55 56 56 56 57 57 57 57 57 56 55 54 52 51 51 51 50 50 49 50 50 51 51 52 52 52 50 48 45 41 38 36 38 39 38 37 35 33 31 30 29 29 27 27 29 31 34 37 40 45 51 51 48 47 46 46 47
52 52 52 53 56 58 58 55 52 52 52 50 50 50 49 49 50 51 52 53 52 52 53 54 55 55 56 56 56 57 58 58 59 59 59 58 58 58 57 55 54 53 52 52 52 51 50 50 51 51 52 52 52 53 52 50 48 45 42 39 37 39 41 41 39 38 36 33 32 32 31 28 26 26 28 29 32 37 43 50 51 49 48 47 46 47
52 51 52 53 56 58 58 56 53 52 52 51 51 51 50 49 50 51 52 53 53 53 54 55 56 57 57 57 58 58 59 59 60 60 60 59 58 58 57 56 55 55 55 54 53 53 52 52 52 52 53 52 52 53 52 50 48 46 43 40 38 39 42 42 41 40 38 36 34 34 33 30 26 25 25 25 27 32 39 46 49 47 46 44 43 44
53 53 53 54 56 58 58 56 54 53 52 53 54 53 51 49 50 52 53 53 54 54 55 56 57 58 58 58 58 59 59 60 60 60 60 59 59 58 58 57 57 57 57 56 55 55 54 54 53 53 54 53 53 53 51 49 48 47 45 42 39 39 43 44 43 42 41 39 37 36 34 31 27 24 23 23 24 27 33 41 47 48 47 45 44 44
54 53 53 54 54 55 55 55 54 53 54 55 55 54 53 51 51 53 54 54 55 55 55 56 58 59 60 59 60 60 60 60 60 60 60 60 59 59 59 59 59 59 59 58 57 57 56 56 55 55 55 54 53 53 51 49 48 47 45 43 40 39 42 46 46 44 43 42 40 39 37 33 28 24 23 24 24 25 28 35 43 48 50 50 49 48
53 52 52 51 51 52 53 53 53 53 54 54 54 55 55 54 54 54 55 55 56 56 56 57 58 59 61 61 61 61 61 61 61 61 61 61 60 60 61 61 61 61 61 60 59 59 58 57 56 56 56 55 54 54 51 49 48 47 45 44 42 40 41 45 48 47 45 44 43 41 40 37 32 27 24 24 25 25 25 29 37 46 52 53 52 52
51 51 51 50 50 50 52 52 52 52 53 54 54 55 55 55 55 55 55 55 56 56 57 58 58 60 61 62 63 62 62 62 62 62 62 62 63 63 63 63 63 63 64 62 61 60 59 59 58 57 57 56 55 53 50 49 48 47 46 44 43 42 42 43 47 48 48 47 45 44 43 42 39 34 28 26 25 25 25 26 31 41 51 55 55 54
51 51 51 52 52 52 52 53 53 52 53 53 54 54 54 55 55 55 55 56 56 56 57 58 58 60 61 63 64 63 63 64 64 64 64 64 65 65 65 65 65 66 66 64 62 61 61 60 59 58 57 58 57 53 50 50 49 48 47 45 44 43 42 43 44 47 49 49 48 46 45 45 44 41 37 31 27 25 26 27 28 35 45 53 55 55
52 52 53 53 54 54 55 55 55 55 55 55 56 55 55 55 55 55 56 56 56 57 57 58 59 60 61 63 64 65 65 66 66 66 66 66 66 66 66 67 67 67 67 65 63 63 62 60 59 59 58 59 58 54 51 50 50 50 49 47 45 44 43 43 43 45 48 49 49 49 48 47 46 45 43 39 33 28 26 28 30 32 38 44 48 50
53 54 55 55 56 56 57 57 57 57 57 58 58 57 56 56 55 56 57 56 57 57 58 59 60 61 61 62 64 65 66 67 67 67 67 67 68 68 68 68 68 68 67 66 65 64 62 61 60 60 60 60 59 55 52 50 51 52 51 49 46 45 44 43 43 44 46 48 50 51 50 49 48 47 47 45 41 35 30 28 31 33 37 41 43 43
53 53 54 55 56 56 57 57 57 57 57 58 58 57 57 57 57 58 58 58 58 59 60 60 61 61 62 63 64 65 66 67 67 67 68 68 68 68 68 68 68 68 68 67 66 65 63 63 63 63 62 61 59 57 54 52 52 53 53 51 49 46 45 43 42 44 46 47 49 51 52 52 51 50 49 49 47 43 38 33 32 33 37 42 46 47
51 52 52 53 54 54 55 56 56 57 57 57 57 57 58 58 59 59 59 59 60 61 62 62 62 62 63 63 64 65 66 67 67 67 68 68 68 69 69 69 69 68 68 67 67 66 66 65 65 66 64 63 61 59 56 54 53 54 54 54 52 49 46 44 43 43 44 46 48 49 51 53 54 52 51 51 51 49 46 41 37 35 37 42 48 51
51 51 52 52 53 54 55 55 56 57 57 58 59 59 59 60 61 61 61 61 62 62 63 63 63 64 64 65 66 66 67 67 68 68 68 69 69 69 69 69 69 69 68 68 68 68 68 68 68 68 67 65 63 62 60 58 56 55 55 56 55 52 49 47 44 43 43 45 46 48 49 51 53 54 53 54 54 54 52 49 44 41 40 41 45 50
52 53 54 54 54 55 56 56 57 58 59 60 60 61 61 61 62 62 62 62 63 63 63 64 64 65 65 66 67 67 68 68 69 69 69 69 69 69 69 69 70 70 70 70 71 71 71 72 71 70 69 67 66 64 63 61 59 58 57 57 58 56 53 50 48 45 44 44 45 47 48 49 51 53 53 54 56 57 56 55 51 48 46 44 44 46
53 54 55 56 57 58 58 59 60 61 61 61 61 62 62 62 62 63 63 63 64 64 65 65 65 65 66 66 67 67 68 68 69 69 70 70 70 71 71 71 72 73 73 74 74 74 74 73 72 71 69 68 67 65 64 63 61 60 59 59 59 59 56 53 52 50 47 46 46 46 47 48 50 51 52 53 56 58 59 59 57 54 52 51 49 48
54 55 56 57 58 59 60 61 62 62 63 63 63 63 63 63 64 64 64 65 66 66 67 68 68 68 68 68 69 69 70 70 71 72 72 73 73 74 75 75 76 76 76 76 76 75 74 73 71 70 69 68 67 65 64 63 62 61 60 60 61 61 59 57 55 54 52 49 48 48 47 48 49 51 51 52 54 57 59 61 61 59 57 55 54 53
54 55 56 57 58 59 60 60 61 61 62 62 62 63 63 62 63 63 64 65 66 66 67 68 68 69 69 70 70 71 72 72 73 74 74 75 75 75 75 76 76 75 75 74 73 73 72 70 69 68 67 66 66 65 65 64 64 63 62 62 62 62 62 60 59 58 57 54 52 51 50 50 50 50 51 52 53 55 57 60 62 62 61 60 58 57
51 52 53 54 55 56 57 58 58 58 58 58 59 59 58 59 59 60 60 61 61 61 62 62 63 64 65 65 66 67 68 69 69 70 70 71 71 71 71 71 71 71 70 70 69 69 69 68 68 67 67 67 67 67 66 66 65 64 64 64 64 64 64 63 62 61 61 59 57 56 55 53 52 52 52 53 54 54 56 58 60 62 63 63 62 61
47 48 49 50 51 52 53 53 54 54 55 54 54 54 54 55 55 55 55 56 56 56 56 57 58 58 58 59 60 60 61 62 63 63 64 65 65 66 66 67 67 67 67 68 68 68 69 69 69 69 69 69 68 68 67 66 66 66 65 66 66 67 67 66 64 63 63 63 62 60 59 57 56 55 54 54 55 55 56 57 58 60 61 62 62 62
45 46 48 48 49 50 51 51 51 52 52 52 51 52 52 53 53 53 53 54 54 54 55 55 55 56 56 57 57 58 59 59 60 61 62 63 64 65 65 66 67 68 68 69 69 70 70 70 71 70 69 68 68 67 66 66 66 66 66 67 68 68 69 68 66 65 64 65 64 63 62 61 60 59 57 56 56 56 57 57 58 59 61 61 61 61
45 46 47 48 49 49 50 51 51 51 51 51 51 52 52 52 52 53 53 54 54 55 55 55 56 56 57 57 58 59 59 60 61 62 63 64 65 66 66 67 67 68 68 68 68 68 68 68 68 67 66 66 65 64 64 64 64 65 66 67 68 69 69 69 68 67 66 66 66 65 64 64 63 62 61 60 58 58 58 59 59 60 61 62 62 62
45 46 46 47 48 49 49 50 50 50 50 51 51 52 52 52 53 53 54 54 54 55 55 55 56 56 56 57 58 58 59 60 60 61 61 62 62 63 63 63 63 63 63 63 63 63 63 63 63 63 63 63 63 63 63 63 63 64 65 66 67 67 68 68 69 68 67 67 67 66 66 65 65 65 64 63 62 60 60 60 61 62 62 63 63 64
43 43 44 45 46 47 48 48 49 49 50 50 51 51 51 51 51 52 52 53 53 53 53 53 53 53 53 54 54 54 55 55 55 55 56 56 56 56 56 56 57 57 57 58 58 58 59 59 60 60 60 61 61 61 62 62 62 63 64 65 65 65 66 66 66 67 67 67 68 67 67 67 67 67 67 66 65 64 62 62 63 64 64 65 65 66
Wind_Direction
235 233 232 232 232 232 232 232 233 233 234 235 236 236 236 236 236 237 237 238 240 241 243 244 247 250 251 251 252 254 256 257 259 261 263 266 267 269 270 271 273 274 275 277 279 281 282 283 284 284 287 289 291 294 296 295 293 294 293 290 287 283 280 278 276 273 271 270 268 266 264 263 261 260 258 255 251 247 242 242 242 241 242 243 243 244
235 233 232 232 231 231 230 230 231 232 233 234 234 235 235 235 236 236 237 238 240 241 243 244 247 249 250 250 252 254 255 257 259 262 264 266 267 268 269 271 273 275 276 278 280 281 282 282 283 285 286 288 289 290 288 284 284 285 281 280 279 275 275 275 274 272 270 268 267 265 263 262 260 256 252 248 243 236 235 244 244 240 239 240 239 240
236 234 233 232 231 230 230 230 230 231 232 233 233 234 234 235 236 237 238 239 240 241 242 243 246 249 249 249 251 253 255 257 259 261 264 266 267 268 270 271 273 275 277 278 279 280 281 282 283 283 281 280 278 273 268 268 270 266 261 265 268 267 269 270 271 272 269 263 262 261 258 257 256 253 246 240 236 229 228 238 240 239 238 237 239 240
235 233 233 232 231 230 229 229 229 230 231 232 233 234 235 236 236 237 238 239 240 241 241 242 245 247 248 248 250 253 255 257 259 261 264 265 267 268 270 272 274 276 277 278 279 280 282 282 281 279 278 277 274 268 266 267 266 259 254 257 262 267 270 271 272 273 269 262 257 256 253 249 249 250 245 236 229 224 224 231 234 235 236 237 239 243
233 232 232 231 230 229 228 228 228 228 229 231 232 234 235 236 237 237 238 239 240 240 240 241 243 245 247 248 250 253 256 258 260 262 264 265 267 269 270 272 274 275 276 277 279 281 281 281 280 279 279 278 275 271 270 270 268 264 261 260 261 268 272 271 269 268 269 266 259 255 252 247 245 246 245 236 228 225 224 228 231 233 237 240 241 244
232 232 232 231 230 229 227 227 227 228 228 230 231 233 234 235 237 237 238 239 239 239 240 241 242 244 246 247 250 253 255 258 260 261 263 265 267 269 270 272 272 274 276 278 279 279 279 279 279 279 280 280 277 274 273 272 270 266 263 262 262 265 268 268 263 263 267 269 268 264 257 251 246 242 240 235 229 227 225 226 229 233 240 246 250 252
232 232 232 231 230 229 228 226 226 227 228 229 231 232 233 235 236 237 238 238 238 237 238 239 241 243 244 246 249 251 254 256 258 260 262 264 266 268 269 270 271 273 276 277 277 278 278 278 279 280 281 282 281 277 273 271 269 266 262 262 262 262 263 263 259 258 263 267 270 270 265 258 250 243 240 237 232 229 227 225 225 230 238 246 251 254
232 232 231 231 230 229 229 227 226 226 226 228 230 232 233 234 235 236 237 237 237 237 237 239 240 241 243 245 248 250 253 255 257 259 261 263 265 266 267 268 271 273 274 275 276 277 278 278 279 281 283 284 283 279 274 271 268 266 264 262 261 260 260 260 256 252 254 259 262 264 265 263 256 248 243 240 236 232 230 228 226 227 232 240 244 245
229 229 229 230 229 228 228 227 226 225 225 226 228 231 232 233 235 236 236 237 237 236 237 239 240 241 243 245 247 250 252 254 255 258 260 261 263 263 264 267 271 272 273 274 275 276 277 278 279 281 284 284 282 279 275 272 268 266 264 262 261 260 258 256 252 248 246 248 252 256 259 261 258 252 246 242 239 235 232 230 231 230 229 232 236 239
228 228 228 229 228 227 226 225 224 223 223 224 227 229 231 233 234 235 236 236 236 236 237 238 239 241 243 244 246 248 250 251 254 256 258 260 261 261 263 266 268 269 271 273 274 276 277 279 281 282 283 282 281 279 277 275 272 269 267 265 262 260 258 254 248 245 244 244 245 249 252 255 256 253 249 244 240 237 234 233 235 238 235 232 233 236
229 229 230 230 228 227 226 225 223 222 222 224 226 228 230 232 234 235 235 236 236 236 237 239 240 241 242 243 244 246 248 250 253 256 257 258 259 260 262 264 266 267 269 271 273 275 277 280 282 283 282 281 280 280 280 279 278 276 274 272 270 265 261 256 250 246 245 244 243 243 245 248 252 253 249 243 239 235 232 230 232 236 237 232 229 231
229 230 230 230 229 227 227 226 224 222 223 225 227 229 231 234 236 236 237 237 237 237 238 239 239 240 241 242 243 244 247 250 253 255 256 257 258 260 261 263 264 266 268 270 272 275 277 280 282 283 283 283 283 283 282 282 280 279 278 277 275 272 267 261 255 250 247 245 242 240 241 242 245 250 248 239 235 232 228 226 225 227 228 224 223 226
228 228 229 229 229 228 227 225 224 224 225 227 229 232 234 236 237 238 239 238 238 237 237 238 239 239 240 241 242 244 247 250 252 253 254 256 257 259 260 261 263 265 268 270 272 274 277 280 283 284 285 285 285 284 282 281 280 279 278 277 276 274 271 266 261 254 249 247 243 239 239 240 239 243 246 241 235 231 228 226 228 229 226 222 222 224
226 228 228 227 228 228 226 224 224 224 226 228 230 233 235 236 237 238 238 238 236 236 236 237 238 239 239 239 240 243 246 249 250 250 252 254 256 258 259 261 263 266 268 270 273 276 279 282 284 285 285 285 285 284 283 281 280 279 278 277 275 273 271 268 265 261 255 251 246 240 239 239 237 237 241 245 240 233 230 229 231 234 232 228 225 223
224 226 227 227 226 224 224 223 223 223 223 224 227 230 232 234 234 235 236 235 235 234 234 234 235 235 236 237 238 241 244 245 246 248 250 252 256 258 259 262 264 267 269 272 275 278 281 283 284 284 285 285 285 284 283 282 280 279 277 276 274 273 272 271 270 267 260 254 249 243 239 238 238 235 237 244 244 236 232 233 233 235 236 234 231 228
225 223 222 222 221 220 220 221 221 222 222 224 226 228 230 231 231 231 231 230 229 229 230 230 231 232 233 236 238 240 242 243 245 247 249 252 255 257 259 262 264 267 270 273 276 279 281 283 284 285 286 286 286 285 284 283 281 279 277 276 275 274 274 274 272 268 261 255 252 247 241 238 237 236 236 240 243 240 235 234 234 233 233 234 233 231
225 222 219 219 218 217 218 219 219 220 221 223 226 228 228 228 228 228 228 227 227 227 228 228 229 230 233 237 239 241 241 243 245 247 250 252 254 256 258 261 264 266 269 273 276 279 281 282 284 286 287 287 287 287 286 285 283 282 280 279 278 278 278 276 272 265 257 252 252 250 244 240 238 237 238 240 244 247 239 234 234 234 231 230 230 230
221 220 218 218 217 216 217 218 218 218 219 220 222 225 226 225 225 226 226 227 227 228 228 228 228 231 235 238 240 241 242 243 246 248 250 252 252 254 257 260 263 266 269 273 276 278 280 282 284 286 287 288 288 288 287 287 286 286 285 284 283 283 281 277 271 264 255 249 249 249 246 242 239 237 240 244 249 254 245 236 234 234 232 229 227 227
217 218 217 217 217 216 216 217 217 217 217 217 218 221 223 223 223 225 226 226 227 227 227 227 228 230 233 236 239 241 242 243 245 247 249 249 250 253 256 259 262 266 269 272 275 277 280 281 284 286 287 287 287 287 288 288 288 288 288 287 287 286 283 278 272 264 255 247 245 247 248 246 242 238 240 245 252 257 250 239 234 233 232 229 225 224
217 218 218 217 217 217 216 216 216 215 215 217 220 222 224 223 223 224 224 224 224 224 224 225 226 228 231 233 236 239 241 242 244 246 246 247 249 252 255 259 262 265 268 271 274 276 278 280 282 284 285 285 287 288 289 290 290 290 289 289 288 288 284 278 271 264 256 248 243 244 248 251 246 238 240 245 250 256 250 239 233 232 231 229 224 222
217 217 218 218 218 217 216 215 214 214 214 216 220 223 225 226 226 226 226 224 224 224 224 226 227 229 232 234 236 238 241 242 244 244 244 246 249 252 255 259 262 265 268 271 274 275 276 278 281 283 284 286 287 290 291 292 292 291 290 290 291 289 285 279 271 264 257 251 246 243 246 250 247 240 242 247 250 254 250 238 232 231 231 229 225 222
217 218 218 217 217 217 215 213 211 212 214 216 218 221 223 225 226 227 226 225 224 224 225 226 228 230 232 234 237 239 241 243 244 244 244 246 249 252 256 259 262 265 269 272 273 274 275 277 279 282 284 286 288 291 294 294 294 293 292 292 293 289 284 279 272 265 258 253 250 248 247 249 249 246 246 248 250 253 251 241 233 231 230 228 225 221
216 217 217 216 215 214 212 211 210 211 214 217 220 222 223 224 226 226 227 226 224 223 224 226 228 231 232 234 237 239 241 242 243 243 245 247 250 253 256 259 262 266 269 271 273 273 274 276 278 281 283 286 290 293 296 297 296 294 293 293 292 286 280 277 272 266 262 257 254 253 251 250 250 248 245 246 248 251 253 246 236 232 229 226 224 220
212 213 214 214 212 209 208 210 211 213 216 219 221 223 225 227 228 229 229 228 226 224 225 227 229 231 232 233 236 239 240 241 242 243 245 247 250 253 256 259 263 266 269 271 272 273 274 276 279 281 284 288 292 295 297 298 296 294 293 292 289 281 275 273 271 267 266 264 260 257 255 253 251 247 243 245 248 250 253 250 238 232 229 225 222 219
207 208 208 209 209 208 208 210 212 215 218 220 222 225 228 230 231 231 231 229 227 227 228 230 231 231 232 233 236 239 240 241 241 243 245 247 250 253 257 260 263 266 269 271 272 273 274 277 280 283 286 290 293 295 297 297 295 292 291 290 285 276 269 269 271 270 269 270 267 264 260 255 251 247 244 245 248 249 251 249 240 231 227 225 221 217
200 201 202 202 205 207 208 210 213 215 218 221 224 227 231 233 233 233 232 230 229 229 230 231 231 231 232 234 236 238 240 240 242 243 245 248 251 254 257 260 263 266 269 270 272 273 275 278 281 284 288 290 292 295 297 296 293 290 289 288 282 273 265 263 268 271 270 271 272 271 267 259 252 247 244 244 245 245 246 245 240 233 227 224 221 216
195 197 199 200 202 205 207 210 213 215 217 220 224 227 231 232 232 232 232 231 231 231 231 231 230 230 232 234 236 238 239 240 242 244 246 249 252 255 257 260 263 266 269 270 272 274 276 279 282 285 287 289 291 294 296 294 292 290 289 287 278 269 263 259 262 267 268 269 271 272 271 266 257 250 246 245 244 244 242 239 237 234 229 226 222 218
195 197 199 201 204 207 211 213 216 218 218 219 223 226 229 230 230 230 230 230 230 230 231 231 230 230 232 234 236 237 238 240 242 244 247 250 252 255 257 260 264 266 269 271 272 275 277 279 282 284 286 288 290 293 295 292 290 289 289 287 275 265 261 258 257 261 264 265 265 266 268 267 263 256 251 249 247 244 240 236 234 232 230 228 225 221
198 199 202 204 206 209 214 217 219 219 218 219 224 227 229 230 230 230 229 229 229 230 230 230 230 231 232 233 235 236 237 239 241 243 246 249 252 255 258 261 265 267 269 271 273 275 277 280 281 283 285 287 289 292 293 290 288 287 287 287 276 262 258 257 255 255 258 260 259 260 263 264 264 261 256 251 248 243 237 233 232 232 230 229 229 227
201 202 205 208 209 210 214 218 220 218 218 221 226 228 230 232 232 232 232 231 230 231 231 231 231 231 233 234 235 236 238 239 241 244 246 249 252 256 260 263 266 268 269 271 273 275 277 279 281 282 284 285 288 291 291 288 286 285 285 286 279 264 256 256 255 253 254 256 256 258 259 259 261 263 260 254 248 242 235 231 231 232 231 231 231 231
205 206 207 209 210 212 216 219 219 219 221 226 229 230 231 233 234 234 234 233 233 233 233 233 232 232 234 236 237 238 240 241 244 246 249 251 255 258 262 264 266 268 269 271 274 276 277 278 279 280 282 284 287 290 290 285 283 283 283 283 279 266 256 254 255 254 252 252 253 254 254 253 256 261 262 257 251 244 236 230 227 228 229 230 230 230
208 208 208 210 211 213 216 218 219 222 225 229 230 231 233 235 236 235 236 236 235 235 235 236 235 235 236 238 240 241 242 244 246 248 251 254 256 259 262 265 266 268 270 272 274 275 276 277 278 279 280 282 286 288 287 283 280 281 282 283 279 268 256 252 252 252 251 250 250 250 249 248 251 256 257 256 252 246 239 232 226 223 224 226 227 227
209 210 210 212 214 215 217 219 222 225 227 229 231 232 235 238 238 236 237 237 237 237 237 238 238 238 238 239 241 243 244 246 247 249 252 255 257 260 262 264 266 268 270 272 273 274 276 277 277 277 279 281 285 287 284 279 277 279 280 281 280 272 259 251 249 249 249 248 247 247 245 243 243 246 249 250 249 246 241 234 228 223 222 224 225 226
211 212 213 215 218 219 220 223 226 229 230 232 234 235 238 240 239 237 238 239 238 239 239 239 240 240 240 241 242 244 246 247 249 251 253 256 258 260 262 264 267 269 270 271 272 274 275 276 276 277 278 281 284 285 282 276 274 275 278 280 279 275 265 254 248 247 247 247 245 245 243 240 238 239 241 244 245 245 241 236 230 225 222 223 225 226
212 213 215 218 221 222 224 226 229 231 233 235 237 239 240 240 239 239 240 240 241 241 241 242 242 242 242 242 243 245 246 248 250 252 254 256 258 260 263 265 267 268 269 271 272 273 274 275 275 276 278 281 283 283 278 273 271 271 274 277 278 276 271 261 252 247 246 246 245 244 242 240 237 236 237 240 241 242 242 238 232 227 224 224 226 227
215 217 220 222 224 225 226 228 230 233 235 238 240 240 240 239 239 240 241 241 242 243 244 244 245 245 245 245 246 247 248 250 251 253 255 257 259 261 263 265 266 268 269 271 272 273 273 274 275 276 278 280 282 281 275 271 269 269 270 274 275 274 272 267 259 251 246 245 245 245 242 240 238 235 234 237 239 239 240 239 235 229 226 226 228 229
222 223 225 227 228 229 230 232 233 236 238 240 241 240 240 239 239 240 241 242 242 244 245 245 246 246 246 247 247 248 249 251 252 254 256 258 260 262 263 265 266 268 269 271 271 272 272 273 274 275 277 279 280 278 274 271 269 268 269 270 273 273 271 268 263 257 250 246 244 244 244 242 239 235 233 234 236 236 237 238 237 233 227 225 228 231
226 228 229 230 231 232 234 235 236 237 238 239 240 240 240 240 240 241 241 241 242 243 244 245 246 247 247 248 248 249 250 252 253 255 257 259 260 262 264 265 266 268 269 270 270 270 271 272 272 273 275 277 278 276 273 270 268 268 268 269 271 272 271 268 264 259 255 249 245 243 244 242 240 237 234 233 234 235 235 234 236 235 229 224 224 226
227 229 230 231 232 234 235 236 237 238 238 239 240 240 241 241 241 241 241 241 242 242 243 244 245 247 248 248 249 250 251 253 254 256 258 259 260 262 263 264 266 267 268 268 269 269 269 270 271 273 274 275 275 274 272 269 268 267 268 268 269 270 270 268 265 260 257 253 249 245 243 242 241 239 236 233 234 235 235 235 234 234 231 226 224 224
228 230 231 232 233 234 235 236 237 238 239 239 240 240 241 241 242 242 242 242 243 243 244 244 245 246 247 249 250 251 252 253 255 256 257 259 260 261 262 263 264 265 266 267 268 268 269 270 272 273 275 274 273 272 270 268 267 267 267 267 268 269 268 266 265 262 259 256 253 249 245 243 242 240 237 235 234 234 236 237 237 235 232 229 227 225
229 230 231 232 233 234 235 236 237 238 238 239 239 239 240 241 242 243 243 244 244 245 246 247 247 248 248 250 251 252 253 254 255 256 257 258 259 260 261 262 263 264 265 266 268 269 270 271 272 273 273 272 272 271 269 267 266 265 265 265 265 267 267 264 262 262 260 258 255 252 249 246 244 241 239 237 235 234 235 238 240 238 236 233 231 229
231 232 233 234 235 235 236 237 238 238 239 239 240 241 241 242 243 243 245 246 246 247 248 249 250 250 251 251 252 253 254 255 256 257 258 258 259 260 261 262 263 264 265 266 268 269 270 271 271 272 272 271 271 270 268 267 265 263 263 263 263 263 264 263 260 259 259 258 257 255 252 250 247 244 241 238 237 236 236 238 240 241 240 239 237 235
235 235 235 236 236 237 238 238 239 240 241 242 243 244 244 245 245 246 246 247 248 249 249 250 251 251 252 253 254 255 256 257 257 258 259 260 260 261 262 263 264 265 266 267 268 268 269 270 270 270 270 270 269 268 267 266 264 262 260 260 260 261 262 261 259 257 256 257 257 256 255 252 250 247 244 240 238 237 237 238 240 241 242 242 241 241
236 237 238 238 239 240 240 241 242 243 244 245 246 247 248 248 249 250 250 250 250 251 251 251 252 252 253 254 255 256 257 257 258 259 260 261 262 262 263 264 264 265 266 267 267 268 268 268 269 268 268 268 267 267 267 266 264 262 259 258 258 258 259 260 259 256 254 254 254 254 254 253 252 250 247 244 241 239 238 237 239 240 242 243 243 243
237 238 240 241 242 243 244 245 246 246 247 248 249 250 250 251 252 252 252 253 253 253 254 254 255 255 255 255 256 256 257 258 259 260 261 262 262 263 264 265 265 266 266 266 267 267 267 267 267 267 267 267 267 267 266 265 264 262 259 257 256 256 257 258 258 256 253 252 252 252 251 251 251 250 249 247 244 242 240 238 238 239 241 242 243 244
239 239 241 242 243 244 245 245 246 247 248 248 249 250 251 251 252 252 253 253 254 255 255 255 256 256 257 257 257 258 258 259 259 260 261 261 262 262 263 264 264 265 265 265 266 266 266 266 266 266 267 267 267 267 266 265 264 262 259 257 256 256 256 257 257 257 254 252 251 250 250 250 249 249 249 248 246 244 242 241 239 238 239 241 242 244
241 241 241 242 243 244 244 245 246 246 247 247 248 249 249 250 250 251 252 253 253 254 254 255 255 256 256 257 257 258 258 259 259 260 260 261 261 262 262 263 263 264 264 265 266 266 266 267 267 267 267 267 267 266 265 265 263 261 259 258 256 256 256 256 256 256 255 253 251 250 250 249 249 248 247 247 247 246 244 243 241 240 239 239 240 241
242 242 242 243 243 244 244 245 246 247 248 248 249 249 250 250 251 251 252 252 253 253 253 254 255 255 256 256 257 258 258 259 259 260 261 261 262 262 263 263 264 265 265 266 266 267 267 268 268 268 268 267 267 266 265 264 263 262 260 259 257 257 257 257 257 257 255 253 252 251 251 250 250 249 247 246 245 245 244 243 242 241 240 239 238 238
242 242 242 242 243 243 244 245 246 247 248 248 249 249 250 250 251 251 252 252 253 253 254 255 255 256 256 257 257 258 259 259 260 260 261 262 262 263 264 264 265 266 266 267 267 267 268 268 268 268 268 267 267 267 266 265 264 263 262 260 259 259 258 258 258 257 256 254 253 252 251 251 250 250 249 247 245 244 243 243 242 241 241 240 238 237
241 241 241 241 242 242 242 243 244 245 246 246 247 248 249 250 250 251 252 253 253 254 255 255 256 257 257 258 258 259 259 260 260 261 261 262 263 263 264 265 265 266 266 266 267 267 267 267 267 267 267 267 267 267 266 266 265 264 263 262 260 259 259 258 258 257 256 254 253 252 252 251 251 251 250 249 247 245 243 242 241 241 240 240 239 238
241 241 241 241 241 242 243 243 244 245 245 246 247 247 248 249 250 251 252 253 254 254 255 256 256 257 258 258 259 259 260 260 261 261 262 263 263 264 264 264 265 265 266 267 267 267 268 268 268 268 268 268 268 267 267 266 266 265 264 263 262 261 260 259 258 257 256 255 254 253 252 251 251 251 251 250 249 247 244 242 241 240 239 239 239 239
Height
10591 10598 10606 10611 10612 10614 10617 10621 10624 10627 10631 10634 10638 10643 10648 10652 10655 10659 10662 10664 10666 10670 10676 10683 10683 10688 10697 10699 10697 10697 10699 10703 10705 10707 10708 10710 10711 10710 10708 10706 10706 10709 10712 10715 10717 10720 10723 10725 10725 10725 10726 10726 10724 10723 10721 10719 10720 10721 10719 10715 10713 10712 10710 10710 10710 10710 10712 10713 10714 10716 10716 10718 10721 10724 10727 10729 10731 10734 10737 10739 10741 10744 10746 10747 10749 10750
10585 10593 10599 10601 10602 10604 10607 10612 10615 10620 10624 10628 10632 10636 10640 10644 10648 10652 10655 10657 10661 10665 10674 10680 10679 10682 10691 10692 10690 10691 10694 10698 10700 10702 10703 10704 10704 10703 10701 10700 10701 10703 10707 10709 10711 10714 10717 10718 10719 10720 10722 10722 10720 10719 10716 10712 10713 10716 10713 10708 10706 10704 10701 10703 10704 10705 10707 10709 10709 10711 10712 10713 10717 10720 10723 10725 10728 10732 10735 10738 10740 10741 10743 10745 10747 10748
10579 10587 10590 10590 10593 10596 10600 10605 10609 10613 10618 10621 10625 10629 10633 10638 10641 10645 10648 10652 10657 10662 10671 10676 10674 10676 10683 10685 10684 10685 10688 10693 10695 10697 10697 10697 10697 10695 10695 10695 10696 10698 10701 10704 10705 10708 10710 10712 10713 10713 10714 10714 10711 10710 10707 10702 10703 10706 10702 10698 10697 10696 10696 10697 10698 10700 10701 10702 10703 10705 10707 10709 10711 10714 10718 10722 10725 10729 10732 10735 10737 10738 10740 10743 10744 10744
10572 10577 10578 10581 10585 10589 10594 10598 10601 10606 10612 10616 10620 10624 10628 10632 10635 10639 10643 10647 10652 10659 10667 10670 10667 10670 10676 10678 10678 10679 10683 10688 10690 10691 10691 10690 10689 10689 10689 10690 10691 10693 10695 10697 10699 10701 10703 10704 10705 10704 10704 10704 10703 10701 10699 10696 10696 10697 10693 10691 10692 10693 10696 10696 10694 10695 10695 10696 10697 10699 10702 10704 10706 10709 10713 10718 10721 10724 10727 10730 10733 10735 10737 10739 10740 10741
10563 10566 10568 10573 10578 10582 10586 10590 10595 10601 10607 10611 10614 10619 10623 10625 10628 10632 10637 10642 10648 10655 10662 10662 10661 10664 10669 10672 10672 10674 10678 10682 10684 10685 10684 10683 10683 10683 10684 10686 10687 10688 10690 10692 10693 10695 10696 10697 10696 10695 10695 10697 10697 10696 10694 10692 10692 10691 10688 10688 10690 10691 10694 10694 10691 10690 10690 10691 10691 10694 10697 10699 10702 10705 10708 10712 10715 10719 10722 10725 10728 10732 10735 10736 10736 10736
10554 10558 10563 10568 10572 10574 10578 10584 10590 10596 10601 10605 10609 10613 10616 10617 10620 10626 10632 10637 10643 10650 10654 10654 10655 10659 10664 10666 10668 10670 10673 10676 10678 10679 10677 10677 10677 10678 10680 10681 10682 10683 10684 10686 10687 10688 10689 10690 10689 10687 10687 10689 10690 10690 10689 10686 10686 10686 10684 10683 10685 10685 10687 10688 10687 10686 10686 10687 10687 10689 10691 10694 10698 10700 10702 10705 10709 10712 10716 10720 10724 10730 10735 10736 10734 10732
10548 10553 10557 10561 10564 10567 10573 10580 10585 10590 10595 10600 10604 10606 10608 10610 10614 10620 10627 10631 10637 10644 10646 10646 10650 10655 10658 10660 10663 10666 10668 10670 10672 10672 10671 10672 10671 10673 10675 10676 10677 10678 10679 10680 10681 10682 10683 10684 10683 10681 10680 10681 10683 10683 10682 10680 10679 10680 10679 10679 10679 10679 10680 10682 10682 10682 10683 10683 10683 10684 10685 10689 10692 10694 10697 10700 10703 10707 10711 10715 10721 10727 10731 10731 10730 10728
10543 10547 10550 10554 10557 10563 10571 10577 10582 10585 10590 10595 10597 10598 10600 10604 10608 10615 10621 10625 10631 10636 10638 10640 10645 10650 10653 10655 10659 10661 10663 10664 10665 10665 10666 10666 10666 10669 10670 10670 10671 10673 10674 10674 10675 10676 10676 10678 10678 10676 10674 10674 10675 10675 10674 10673 10672 10672 10672 10672 10673 10673 10674 10675 10676 10677 10678 10678 10678 10679 10680 10683 10685 10688 10691 10694 10698 10702 10706 10711 10716 10720 10722 10722 10721 10720
10535 10538 10542 10546 10552 10560 10568 10572 10575 10579 10584 10588 10588 10589 10593 10597 10603 10610 10616 10620 10625 10629 10631 10634 10640 10644 10648 10652 10654 10656 10657 10658 10659 10660 10660 10660 10662 10664 10665 10665 10667 10667 10668 10669 10669 10670 10670 10671 10672 10671 10669 10667 10666 10666 10666 10665 10665 10665 10664 10664 10665 10665 10667 10669 10669 10670 10671 10672 10672 10674 10676 10677 10679 10682 10684 10688 10693 10696 10700 10705 10710 10712 10713 10713 10713 10713
10525 10530 10535 10540 10548 10556 10560 10562 10567 10573 10578 10580 10580 10583 10587 10592 10598 10606 10611 10615 10619 10623 10625 10628 10634 10639 10643 10647 10649 10651 10651 10652 10654 10655 10654 10655 10657 10659 10660 10661 10662 10662 10662 10663 10663 10664 10664 10664 10665 10665 10663 10661 10659 10658 10658 10657 10657 10657 10656 10655 10657 10658 10659 10661 10662 10663 10664 10665 10666 10668 10671 10672 10674 10676 10679 10684 10689 10691 10695 10699 10704 10707 10706 10706 10707 10708
10521 10526 10532 10539 10546 10550 10551 10555 10560 10566 10570 10571 10573 10577 10581 10587 10594 10600 10605 10609 10613 10617 10620 10624 10630 10634 10638 10642 10644 10645 10645 10647 10649 10649 10648 10649 10651 10654 10656 10656 10656 10656 10657 10658 10658 10658 10658 10658 10658 10657 10656 10655 10653 10652 10651 10650 10650 10650 10648 10648 10649 10651 10653 10653 10653 10655 10657 10657 10659 10662 10666 10668 10669 10671 10674 10679 10681 10684 10688 10691 10696 10699 10696 10698 10701 10701
10517 10523 10530 10536 10541 10543 10547 10552 10557 10562 10565 10566 10569 10573 10578 10585 10591 10595 10600 10604 10609 10614 10616 10619 10625 10629 10633 10637 10639 10639 10640 10642 10644 10643 10643 10643 10646 10649 10651 10650 10650 10651 10652 10652 10653 10653 10653 10652 10651 10650 10649 10648 10647 10647 10646 10645 10644 10643 10642 10642 10642 10644 10646 10646 10645 10646 10648 10650 10652 10656 10660 10662 10665 10666 10668 10669 10670 10672 10675 10677 10682 10683 10681 10688 10693 10694
10514 10519 10525 10530 10534 10538 10543 10548 10553 10558 10561 10563 10567 10571 10576 10582 10587 10592 10596 10601 10606 10609 10612 10615 10619 10624 10628 10632 10633 10633 10635 10638 10638 10638 10637 10637 10640 10643 10644 10644 10645 10646 10647 10647 10647 10647 10647 10646 10645 10644 10643 10642 10641 10641 10640 10640 10639 10638 10637 10636 10636 10637 10638 10637 10637 10638 10640 10642 10645 10649 10653 10656 10659 10661 10661 10659 10660 10663 10665 10668 10670 10670 10673 10681 10685 10687
10508 10514 10521 10526 10530 10535 10540 10545 10551 10555 10558 10561 10565 10568 10574 10580 10584 10588 10592 10597 10601 10604 10607 10611 10614 10619 10624 10626 10628 10629 10631 10632 10632 10632 10631 10631 10634 10636 10637 10638 10640 10641 10641 10641 10641 10641 10641 10641 10640 10638 10637 10636 10635 10634 10634 10634 10633 10633 10632 10631 10630 10630 10629 10629 10630 10632 10634 10635 10637 10641 10645 10648 10651 10653 10653 10652 10654 10658 10661 10664 10666 10666 10670 10674 10677 10680
10503 10511 10518 10522 10526 10531 10536 10541 10545 10548 10551 10555 10559 10564 10569 10575 10580 10583 10587 10591 10595 10599 10602 10604 10608 10613 10617 10619 10622 10624 10625 10626 10626 10625 10625 10626 10628 10629 10630 10632 10634 10634 10634 10634 10635 10635 10635 10634 10634 10633 10631 10630 10630 10629 10628 10628 10628 10627 10626 10625 10624 10623 10622 10622 10623 10625 10627 10627 10629 10633 10637 10641 10643 10645 10645 10645 10649 10653 10657 10660 10662 10663 10664 10667 10671 10676
10501 10507 10512 10514 10519 10524 10529 10534 10537 10540 10545 10550 10555 10560 10566 10570 10573 10577 10580 10584 10588 10591 10594 10598 10603 10608 10612 10613 10616 10619 10620 10620 10619 10619 10620 10622 10624 10624 10625 10627 10628 10628 10628 10628 10629 10629 10629 10628 10628 10627 10626 10625 10624 10623 10622 10621 10621 10620 10619 10618 10617 10616 10616 10616 10616 10616 10618 10620 10623 10626 10630 10634 10636 10638 10638 10639 10643 10647 10650 10653 10655 10656 10658 10662 10666 10670
10498 10502 10505 10508 10512 10517 10521 10526 10530 10535 10541 10546 10553 10558 10561 10564 10567 10571 10574 10578 10581 10585 10589 10594 10600 10605 10607 10609 10611 10614 10615 10614 10613 10614 10616 10618 10619 10619 10620 10622 10622 10623 10623 10623 10623 10623 10623 10623 10623 10622 10621 10620 10618 10617 10616 10614 10613 10612 10611 10610 10609 10609 10610 10610 10608 10608 10611 10614 10616 10618 10622 10626 10628 10630 10632 10634 10638 10642 10645 10646 10648 10651 10654 10656 10660 10665
10492 10495 10498 10502 10506 10510 10515 10520 10525 10531 10537 10543 10549 10552 10554 10557 10562 10566 10570 10574 10578 10582 10587 10592 10598 10602 10604 10605 10606 10607 10608 10607 10608 10609 10611 10612 10614 10614 10615 10616 10617 10618 10619 10618 10618 10618 10618 10618 10618 10617 10616 10615 10613 10612 10610 10608 10606 10603 10601 10601 10601 10601 10602 10602 10601 10601 10604 10607 10609 10611 10614 10617 10620 10623 10625 10628 10633 10637 10639 10640 10643 10646 10648 10650 10654 10660
10485 10489 10492 10497 10501 10506 10511 10517 10522 10528 10534 10540 10542 10543 10546 10552 10558 10562 10566 10571 10575 10579 10584 10588 10594 10597 10599 10600 10601 10600 10601 10601 10602 10604 10605 10607 10608 10609 10610 10611 10612 10613 10613 10613 10613 10613 10613 10613 10613 10612 10611 10610 10609 10607 10605 10602 10600 10597 10594 10593 10593 10593 10594 10594 10594 10594 10596 10600 10602 10604 10606 10609 10612 10616 10620 10624 10627 10630 10632 10634 10638 10640 10641 10643 10648 10653
10481 10485 10489 10494 10498 10504 10509 10515 10520 10526 10530 10534 10536 10538 10544 10549 10553 10557 10561 10566 10570 10574 10579 10583 10588 10592 10593 10595 10595 10593 10594 10595 10597 10599 10600 10601 10603 10604 10605 10606 10607 10608 10608 10608 10609 10609 10609 10609 10609 10608 10607 10606 10604 10602 10599 10597 10594 10591 10588 10587 10586 10586 10587 10588 10588 10588 10590 10593 10596 10597 10599 10602 10607 10611 10615 10618 10621 10623 10625 10628 10631 10632 10633 10636 10640 10645
10477 10482 10486 10491 10497 10502 10507 10513 10518 10522 10525 10529 10533 10538 10543 10547 10551 10554 10558 10563 10567 10571 10576 10580 10584 10587 10588 10589 10588 10586 10587 10590 10592 10594 10595 10597 10598 10599 10600 10600 10601 10602 10602 10604 10604 10604 10604 10604 10604 10603 10602 10600 10598 10596 10594 10592 10589 10586 10583 10582 10581 10580 10581 10582 10583 10584 10585 10587 10589 10591 10593 10596 10601 10606 10610 10613 10615 10618 10620 10622 10623 10625 10627 10630 10635 10639
10474 10478 10483 10489 10495 10500 10505 10509 10513 10517 10521 10526 10530 10534 10538 10542 10546 10549 10554 10559 10564 10568 10572 10576 10579 10580 10582 10583 10582 10581 10583 10585 10587 10589 10590 10592 10593 10593 10594 10595 10596 10596 10597 10598 10599 10599 10599 10599 10599 10598 10596 10594 10592 10590 10588 10586 10584 10582 10579 10577 10577 10576 10576 10577 10578 10579 10581 10582 10584 10586 10587 10590 10594 10600 10605 10607 10609 10612 10614 10616 10617 10619 10621 10624 10629 10634
10470 10476 10481 10486 10492 10497 10502 10506 10510 10514 10518 10522 10526 10529 10534 10537 10541 10545 10550 10554 10559 10563 10567 10570 10573 10574 10577 10577 10575 10577 10579 10581 10582 10584 10585 10586 10587 10588 10589 10590 10591 10591 10592 10593 10593 10594 10594 10594 10594 10593 10591 10589 10586 10584 10583 10581 10579 10577 10574 10573 10573 10572 10572 10573 10574 10575 10577 10578 10580 10582 10584 10585 10589 10594 10599 10602 10604 10606 10608 10610 10611 10613 10615 10618 10622 10627
10468 10473 10478 10484 10489 10494 10498 10502 10507 10511 10515 10519 10523 10527 10531 10535 10538 10542 10546 10550 10555 10559 10563 10565 10567 10568 10570 10571 10570 10572 10574 10575 10577 10578 10579 10581 10582 10582 10584 10584 10585 10586 10587 10588 10588 10588 10589 10588 10588 10587 10585 10583 10581 10579 10577 10575 10574 10572 10570 10569 10569 10569 10569 10570 10571 10572 10573 10575 10576 10578 10581 10582 10585 10588 10593 10596 10598 10600 10602 10604 10605 10607 10610 10613 10616 10620
10465 10471 10476 10482 10487 10491 10496 10501 10505 10509 10513 10517 10521 10525 10528 10532 10535 10538 10541 10546 10551 10555 10557 10560 10561 10562 10564 10565 10566 10567 10569 10570 10572 10573 10574 10575 10576 10577 10578 10579 10580 10581 10582 10583 10583 10583 10583 10582 10581 10580 10579 10577 10575 10573 10571 10569 10569 10568 10566 10565 10565 10566 10566 10567 10568 10569 10570 10571 10572 10575 10577 10579 10581 10583 10586 10589 10592 10594 10596 10598 10600 10602 10605 10608 10611 10614
10462 10469 10474 10480 10485 10490 10495 10500 10504 10508 10511 10514 10518 10521 10524 10528 10531 10533 10537 10541 10545 10548 10551 10553 10554 10556 10558 10560 10561 10562 10563 10565 10566 10567 10568 10569 10570 10571 10573 10573 10575 10576 10577 10577 10578 10577 10577 10576 10575 10574 10572 10571 10569 10568 10566 10564 10563 10563 10562 10561 10561 10562 10563 10564 10564 10565 10566 10567 10569 10571 10572 10574 10576 10578 10580 10583 10585 10587 10589 10591 10594 10597 10599 10603 10606 10609
10461 10466 10471 10477 10482 10486 10491 10495 10498 10502 10506 10509 10512 10516 10519 10523 10526 10528 10532 10536 10539 10542 10545 10546 10548 10550 10552 10554 10555 10556 10558 10559 10560 10561 10562 10563 10564 10565 10567 10568 10570 10571 10571 10572 10572 10571 10570 10570 10569 10568 10567 10565 10564 10562 10560 10558 10557 10557 10558 10558 10557 10558 10559 10560 10561 10562 10563 10564 10566 10567 10568 10570 10571 10573 10574 10577 10578 10580 10582 10585 10588 10591 10594 10597 10600 10603
10458 10463 10468 10473 10477 10482 10486 10490 10493 10497 10500 10504 10507 10511 10514 10516 10519 10522 10526 10530 10533 10536 10538 10540 10541 10544 10546 10548 10550 10551 10552 10553 10554 10555 10556 10557 10557 10559 10561 10563 10564 10566 10566 10566 10566 10565 10565 10564 10564 10563 10562 10560 10559 10557 10555 10553 10552 10552 10553 10553 10553 10553 10554 10556 10557 10558 10559 10561 10563 10564 10565 10566 10567 10568 10569 10571 10573 10575 10577 10580 10583 10586 10590 10593 10595 10598
10455 10460 10465 10469 10473 10478 10482 10486 10489 10493 10496 10500 10503 10506 10508 10511 10514 10517 10521 10524 10527 10530 10532 10533 10535 10538 10540 10542 10544 10545 10546 10547 10548 10549 10550 10551 10551 10552 10555 10557 10559 10560 10560 10560 10560 10560 10560 10559 10559 10558 10557 10556 10554 10552 10550 10549 10548 10547 10548 10548 10548 10549 10550 10551 10552 10554 10555 10557 10559 10560 10561 10562 10563 10564 10565 10566 10567 10569 10571 10574 10577 10581 10585 10588 10591 10593
10453 10458 10462 10466 10470 10474 10478 10482 10486 10489 10492 10496 10499 10501 10504 10507 10510 10513 10516 10519 10522 10525 10526 10528 10530 10532 10534 10536 10538 10539 10540 10541 10542 10543 10544 10545 10546 10547 10549 10551 10553 10553 10554 10554 10555 10555 10555 10554 10554 10553 10552 10551 10549 10547 10545 10544 10543 10543 10543 10543 10543 10544 10545 10546 10547 10549 10551 10553 10554 10556 10557 10558 10559 10560 10561 10562 10563 10564 10566 10568 10571 10575 10578 10582 10586 10589
10450 10454 10459 10462 10466 10471 10474 10478 10482 10485 10489 10491 10494 10497 10500 10503 10505 10508 10511 10514 10517 10519 10520 10522 10525 10526 10528 10530 10532 10534 10535 10536 10537 10538 10539 10541 10542 10543 10544 10545 10546 10546 10547 10548 10549 10549 10549 10549 10549 10547 10546 10545 10544 10542 10540 10538 10538 10538 10538 10539 10539 10539 10540 10541 10542 10544 10546 10548 10549 10551 10552 10554 10555 10556 10557 10558 10559 10559 10561 10563 10566 10569 10572 10576 10580 10583
10446 10450 10455 10458 10462 10467 10471 10474 10478 10482 10484 10487 10490 10493 10496 10498 10501 10503 10505 10508 10510 10513 10514 10517 10519 10521 10523 10525 10527 10528 10530 10531 10533 10533 10534 10536 10537 10538 10538 10539 10539 10539 10540 10542 10542 10542 10543 10543 10543 10542 10541 10540 10539 10537 10535 10534 10533 10533 10533 10533 10534 10534 10534 10536 10537 10539 10541 10543 10545 10546 10548 10549 10551 10552 10552 10553 10554 10554 10556 10557 10560 10563 10567 10571 10574 10577
10444 10448 10452 10456 10460 10464 10468 10471 10474 10477 10480 10483 10486 10489 10491 10493 10495 10497 10499 10501 10504 10506 10509 10511 10513 10516 10518 10520 10521 10522 10524 10526 10527 10528 10529 10530 10531 10532 10532 10532 10533 10533 10533 10535 10536 10536 10536 10536 10536 10536 10535 10535 10534 10532 10530 10529 10528 10527 10527 10527 10528 10529 10529 10530 10531 10533 10535 10538 10539 10541 10543 10544 10546 10547 10548 10548 10549 10550 10551 10553 10556 10559 10562 10565 10569 10572
10443 10447 10451 10455 10458 10462 10466 10468 10471 10474 10477 10480 10482 10484 10486 10488 10489 10491 10493 10496 10498 10501 10503 10506 10508 10510 10512 10513 10515 10516 10518 10520 10521 10522 10523 10524 10525 10526 10526 10526 10526 10526 10526 10528 10529 10529 10529 10529 10529 10529 10529 10529 10528 10526 10525 10524 10523 10522 10522 10521 10522 10522 10523 10524 10525 10527 10529 10531 10533 10535 10537 10539 10541 10542 10543 10543 10544 10546 10547 10549 10551 10554 10557 10560 10564 10567
10440 10444 10448 10451 10455 10458 10461 10464 10467 10470 10473 10475 10476 10478 10480 10482 10484 10486 10488 10491 10493 10496 10498 10500 10502 10504 10505 10507 10509 10511 10512 10514 10515 10516 10517 10518 10519 10519 10519 10519 10520 10519 10519 10520 10523 10523 10523 10522 10522 10522 10522 10522 10522 10521 10519 10518 10518 10517 10517 10516 10515 10516 10516 10517 10519 10521 10522 10524 10527 10529 10531 10533 10535 10537 10538 10539 10540 10541 10543 10545 10547 10549 10552 10555 10558 10561
10437 10440 10443 10447 10450 10453 10456 10459 10462 10465 10467 10468 10469 10471 10474 10475 10478 10481 10483 10485 10488 10490 10492 10494 10496 10498 10500 10501 10503 10505 10507 10508 10509 10510 10511 10511 10512 10513 10513 10513 10512 10512 10512 10514 10516 10516 10515 10515 10515 10515 10515 10514 10514 10514 10513 10512 10512 10512 10511 10511 10510 10509 10509 10510 10511 10513 10515 10518 10520 10522 10524 10527 10529 10531 10533 10534 10535 10537 10538 10540 10542 10544 10546 10549 10553 10556
10433 10436 10440 10443 10446 10449 10451 10454 10456 10459 10461 10461 10462 10464 10466 10469 10473 10476 10477 10480 10483 10485 10486 10488 10489 10491 10494 10495 10497 10499 10500 10501 10502 10503 10504 10505 10505 10505 10506 10505 10505 10505 10505 10507 10508 10508 10507 10508 10508 10508 10507 10506 10506 10506 10506 10506 10505 10505 10505 10505 10504 10503 10503 10503 10504 10506 10508 10510 10512 10514 10517 10520 10523 10525 10527 10529 10530 10532 10533 10535 10537 10539 10542 10544 10548 10551
10428 10431 10434 10437 10440 10442 10444 10447 10450 10452 10453 10454 10455 10458 10461 10465 10468 10469 10471 10475 10477 10478 10480 10481 10483 10485 10487 10489 10491 10492 10493 10494 10495 10496 10497 10498 10498 10498 10498 10498 10498 10498 10498 10499 10500 10500 10500 10500 10500 10499 10499 10499 10498 10498 10499 10499 10498 10498 10497 10498 10497 10497 10497 10497 10497 10498 10499 10502 10504 10507 10510 10512 10516 10519 10521 10523 10525 10526 10528 10530 10532 10534 10537 10540 10543 10545
10424 10427 10430 10432 10435 10437 10439 10442 10444 10446 10447 10448 10450 10454 10457 10459 10461 10462 10465 10468 10470 10471 10472 10474 10476 10479 10481 10482 10483 10484 10485 10487 10488 10489 10490 10490 10490 10491 10491 10491 10490 10490 10490 10490 10490 10491 10492 10492 10491 10491 10491 10491 10491 10491 10491 10492 10491 10490 10490 10490 10490 10490 10490 10490 10491 10491 10492 10494 10496 10499 10502 10504 10508 10511 10514 10517 10518 10520 10522 10524 10526 10528 10531 10534 10536 10538
10421 10423 10426 10428 10430 10432 10434 10437 10438 10440 10442 10443 10446 10448 10450 10452 10454 10456 10458 10461 10463 10464 10466 10468 10470 10472 10474 10475 10476 10477 10478 10479 10481 10482 10482 10483 10483 10483 10483 10483 10482 10482 10482 10482 10482 10482 10483 10483 10483 10483 10483 10483 10483 10483 10484 10484 10484 10484 10483 10483 10483 10483 10483 10484 10484 10485 10485 10486 10488 10490 10493 10496 10499 10503 10507 10510 10511 10513 10515 10517 10520 10522 10524 10526 10528 10531
10416 10419 10421 10423 10425 10427 10429 10430 10432 10433 10435 10437 10439 10442 10444 10445 10447 10449 10452 10454 10456 10458 10460 10462 10464 10465 10467 10468 10469 10470 10470 10471 10473 10474 10474 10474 10474 10474 10475 10474 10474 10474 10474 10474 10474 10474 10474 10474 10475 10474 10474 10474 10474 10475 10475 10476 10476 10476 10476 10476 10476 10476 10476 10477 10477 10478 10478 10479 10480 10482 10485 10487 10491 10495 10499 10502 10504 10506 10508 10510 10513 10515 10516 10519 10522 10525
10411 10414 10416 10418 10419 10421 10423 10424 10425 10426 10428 10430 10433 10435 10437 10440 10442 10444 10446 10448 10450 10452 10453 10455 10457 10458 10459 10460 10461 10462 10463 10463 10464 10465 10466 10466 10466 10467 10467 10466 10466 10466 10466 10466 10465 10465 10465 10465 10465 10465 10465 10465 10465 10466 10466 10467 10468 10469 10468 10468 10468 10468 10469 10469 10470 10470 10471 10472 10473 10474 10476 10479 10482 10485 10490 10494 10496 10498 10500 10502 10505 10507 10509 10512 10515 10518
10405 10407 10409 10411 10413 10415 10416 10417 10418 10420 10422 10425 10427 10429 10432 10434 10436 10438 10441 10443 10444 10445 10446 10448 10449 10450 10451 10452 10453 10454 10455 10455 10456 10457 10457 10458 10458 10458 10458 10458 10458 10457 10457 10457 10456 10456 10455 10455 10456 10456 10456 10456 10456 10456 10456 10457 10458 10459 10460 10460 10460 10460 10461 10462 10462 10463 10464 10464 10465 10467 10468 10471 10473 10476 10480 10484 10487 10490 10492 10494 10497 10499 10502 10504 10507 10510
10399 10401 10402 10404 10406 10408 10409 10410 10412 10414 10416 10419 10421 10422 10425 10427 10429 10431 10433 10435 10435 10436 10437 10439 10440 10442 10443 10444 10445 10446 10446 10447 10447 10447 10448 10448 10449 10449 10449 10448 10448 10448 10448 10448 10447 10446 10446 10446 10447 10447 10446 10446 10446 10446 10446 10447 10448 10449 10450 10451 10452 10452 10453 10453 10454 10455 10456 10457 10458 10459 10461 10462 10464 10467 10470 10474 10477 10480 10483 10486 10488 10491 10494 10497 10499 10502
10393 10395 10396 10398 10400 10401 10403 10404 10406 10408 10410 10412 10413 10415 10417 10420 10421 10423 10424 10425 10426 10427 10429 10430 10432 10433 10435 10436 10437 10437 10437 10438 10438 10438 10439 10439 10439 10439 10439 10438 10438 10438 10438 10438 10438 10437 10437 10437 10437 10437 10437 10437 10437 10437 10437 10437 10438 10439 10440 10441 10442 10443 10444 10445 10445 10446 10448 10449 10450 10450 10452 10454 10456 10458 10461 10464 10467 10469 10473 10476 10479 10482 10485 10488 10491 10494
10387 10389 10391 10392 10393 10395 10396 10398 10399 10401 10403 10405 10406 10408 10410 10412 10413 10414 10415 10417 10418 10420 10421 10422 10424 10424 10426 10427 10428 10428 10429 10429 10429 10430 10430 10430 10430 10430 10430 10429 10429 10429 10429 10429 10429 10428 10428 10428 10428 10428 10428 10427 10427 10427 10428 10428 10428 10429 10430 10431 10432 10434 10435 10436 10437 10438 10439 10440 10441 10442 10443 10445 10448 10450 10452 10454 10457 10459 10463 10466 10469 10473 10476 10479 10482 10485
10381 10383 10384 10385 10386 10388 10389 10391 10392 10394 10396 10398 10400 10402 10403 10404 10405 10407 10409 10410 10411 10412 10413 10414 10415 10417 10418 10419 10419 10420 10420 10421 10421 10421 10421 10421 10421 10421 10421 10421 10420 10420 10420 10420 10420 10419 10419 10418 10418 10418 10418 10418 10417 10418 10418 10418 10419 10419 10420 10421 10422 10424 10425 10426 10428 10429 10430 10431 10432 10433 10434 10436 10438 10441 10443 10445 10447 10450 10453 10456 10459 10462 10466 10469 10472 10475
10375 10376 10377 10378 10380 10381 10382 10384 10386 10388 10390 10392 10394 10396 10396 10398 10399 10401 10402 10403 10404 10405 10406 10407 10408 10409 10410 10411 10412 10412 10413 10413 10413 10413 10413 10413 10412 10412 10412 10412 10412 10411 10411 10411 10411 10410 10409 10409 10408 10408 10408 10408 10408 10408 10408 10409 10409 10410 10411 10411 10412 10413 10414 10416 10418 10419 10420 10421 10422 10424 10426 10427 10429 10431 10434 10436 10438 10440 10443 10446 10449 10451 10454 10458 10461 10464
10367 10369 10370 10372 10373 10375 10376 10378 10380 10382 10384 10386 10387 10388 10390 10391 10393 10394 10394 10395 10396 10398 10399 10400 10401 10402 10403 10404 10404 10405 10405 10405 10405 10405 10405 10404 10404 10404 10404 10403 10403 10403 10402 10402 10402 10401 10400 10399 10399 10398 10398 10398 10398 10398 10399 10399 10400 10401 10401 10402 10403 10404 10405 10406 10407 10409 10410 10411 10412 10414 10416 10418 10419 10421 10423 10426 10429 10431 10433 10436 10438 10441 10443 10447 10450 10453
10360 10362 10364 10366 10367 10368 10370 10371 10373 10375 10377 10379 10380 10381 10383 10384 10385 10386 10387 10388 10389 10390 10392 10393 10394 10395 10396 10396 10397 10397 10397 10397 10397 10397 10397 10396 10396 10396 10396 10395 10395 10394 10394 10393 10393 10392 10391 10391 10390 10389 10389 10389 10389 10389 10389 10390 10391 10391 10391 10392 10392 10394 10395 10396 10397 10398 10399 10400 10401 10403 10406 10408 10409 10410 10413 10415 10418 10421 10423 10426 10428 10430 10433 10435 10439 10442
10354 10356 10358 10359 10360 10362 10364 10366 10368 10369 10371 10372 10374 10375 10376 10378 10379 10380 10381 10382 10383 10384 10385 10386 10387 10388 10388 10388 10389 10389 10389 10389 10389 10389 10389 10389 10389 10389 10388 10387 10387 10386 10385 10385 10384 10384 10383 10382 10381 10381 10380 10380 10380 10380 10380 10380 10381 10381 10381 10381 10381 10382 10384 10385 10386 10387 10388 10389 10390 10392 10395 10397 10398 10400 10401 10404 10406 10409 10412 10415 10417 10419 10422 10424 10427 10430